User: anonymous   Login
Location: Amon Carter Post Office
(32.8281°N, 97.0484°W)
Time: 11:53:17
(UTC+00:00)
Language:

CUTE 1.7 + AOD 2 - Orbit

View from above orbital plane
View from above orbital plane
View from above satellite
View from above satellite

Ground track
Ground track

The orbit data is extracted from the following two-line orbital elements,

1 32785U 08021C   22268.77863023  .00002272  00000-0  24160-3 0  9991
2 32785  97.6684 236.5229 0010905 260.3763  99.6223 14.89900213781495
Epoch (UTC): 25 September 2022 18:41:13
Eccentricity: 0.0010905
inclination: 97.6684°
perigee height: 590 km
apogee height: 606 km
right ascension of ascending node: 236.5229°
argument of perigee: 260.3763°
revolutions per day: 14.89900213
mean anomaly at epoch: 99.6223°
orbit number at epoch: 78149

The dashed part of the orbit path shows where the satellite is in the earth's shadow,  

DLR